TimeEDT,TemperatureF,Dew PointF,Humidity,Sea Level PressureIn,VisibilityMPH,Wind Direction,Wind SpeedMPH,Gust SpeedMPH,PrecipitationIn,Events,Conditions,WindDirDegrees,DateUTC
12:53 AM,82.9,71.1,67,30.04,10.0,Calm,Calm,-,N/A,,Clear,0,2013-07-24 04:53:00
1:53 AM,82.0,72.0,71,30.01,10.0,Calm,Calm,-,N/A,,Clear,0,2013-07-24 05:53:00
2:53 AM,82.0,73.0,74,29.99,10.0,Calm,Calm,-,N/A,,Clear,0,2013-07-24 06:53:00
3:53 AM,82.0,72.0,71,29.97,10.0,Calm,Calm,-,N/A,,Clear,0,2013-07-24 07:53:00
4:53 AM,82.0,73.0,74,29.96,10.0,Variable,3.5,-,N/A,,Clear,0,2013-07-24 08:53:00
5:53 AM,82.0,73.0,74,29.99,10.0,Calm,Calm,-,N/A,,Scattered Clouds,0,2013-07-24 09:53:00
6:53 AM,80.1,73.0,79,30.00,10.0,Calm,Calm,-,N/A,,Partly Cloudy,0,2013-07-24 10:53:00
7:36 AM,82.4,73.4,74,30.00,10.0,Calm,Calm,-,N/A,,Mostly Cloudy,0,2013-07-24 11:36:00
7:45 AM,82.4,73.4,74,30.00,10.0,Calm,Calm,-,N/A,,Scattered Clouds,0,2013-07-24 11:45:00
7:53 AM,84.0,73.0,69,30.00,10.0,Calm,Calm,-,N/A,,Partly Cloudy,0,2013-07-24 11:53:00
8:53 AM,86.0,72.0,63,30.00,10.0,Calm,Calm,-,N/A,,Clear,0,2013-07-24 12:53:00
9:53 AM,87.1,72.0,61,30.01,10.0,Variable,3.5,-,N/A,,Clear,0,2013-07-24 13:53:00
10:53 AM,88.0,73.0,61,30.02,10.0,Variable,3.5,-,N/A,,Clear,0,2013-07-24 14:53:00
11:53 AM,87.1,72.0,61,30.03,10.0,Variable,3.5,-,N/A,,Mostly Cloudy,0,2013-07-24 15:53:00
12:53 PM,87.1,73.0,63,30.03,10.0,SW,3.5,-,N/A,,Overcast,220,2013-07-24 16:53:00
1:34 PM,87.8,73.4,62,30.02,10.0,SW,3.5,-,N/A,,Mostly Cloudy,220,2013-07-24 17:34:00
1:53 PM,88.0,73.0,61,30.02,10.0,Calm,Calm,-,N/A,,Mostly Cloudy,0,2013-07-24 17:53:00
2:53 PM,90.0,73.0,57,30.00,10.0,Variable,4.6,-,N/A,,Partly Cloudy,0,2013-07-24 18:53:00
3:53 PM,90.0,73.0,57,29.99,10.0,WNW,5.8,-,N/A,,Partly Cloudy,290,2013-07-24 19:53:00
4:53 PM,91.0,73.0,55,29.97,10.0,Variable,4.6,-,N/A,,Clear,0,2013-07-24 20:53:00
5:53 PM,89.1,72.0,57,29.97,10.0,Calm,Calm,-,N/A,,Partly Cloudy,0,2013-07-24 21:53:00
6:53 PM,88.0,72.0,59,29.97,10.0,WNW,4.6,-,N/A,,Clear,300,2013-07-24 22:53:00
7:53 PM,87.1,71.1,59,29.99,10.0,West,3.5,-,N/A,,Clear,280,2013-07-24 23:53:00
8:53 PM,84.9,71.1,63,29.98,10.0,WNW,4.6,-,N/A,,Clear,300,2013-07-25 00:53:00
9:53 PM,84.0,72.0,67,29.99,10.0,NW,3.5,-,N/A,,Clear,310,2013-07-25 01:53:00
10:53 PM,84.0,72.0,67,30.00,10.0,Calm,Calm,-,N/A,,Partly Cloudy,0,2013-07-25 02:53:00
11:53 PM,84.0,72.0,67,30.00,10.0,Calm,Calm,-,N/A,,Scattered Clouds,0,2013-07-25 03:53:00